When you browse on this site, cookies collect data to enhance your experience and personalize the content and advertising you see.
Visit our Privacy Policy to learn more. By continuing to use the site, you agree to this use of cookies and data.
  • In Österreich
  • Länderverzeichnis
  • Für 7 Tage
  • Wassertemperatur
  • Satellitenkarten
  • Wetterkarte
  • News
  • Widgets
  • user-avatar
    Anmelden

    Stündliche Wetter Concord

    Heute, 25 Juni, Dienstag

    Zeit Temperatur Niederschläge Wind Luftdruck Luftfeuchtigkeit
    00:00 +18°C° 0 mm 2 m/S 755 mmHg 55%
    01:00 +18°C° 0 mm 2 m/S 755 mmHg 57%
    02:00 +17°C° 0 mm 2 m/S 754 mmHg 59%
    03:00 +17°C° 0 mm 2 m/S 754 mmHg 60%
    04:00 +16°C° 0 mm 2 m/S 754 mmHg 62%
    05:00 +17°C° 0 mm 2 m/S 754 mmHg 58%
    06:00 +19°C° 0 mm 2 m/S 755 mmHg 54%
    07:00 +20°C° 0 mm 2 m/S 755 mmHg 49%
    08:00 +23°C° 0 mm 2 m/S 755 mmHg 43%
    09:00 +25°C° 0 mm 2 m/S 755 mmHg 36%
    10:00 +28°C° 0 mm 2 m/S 755 mmHg 30%
    11:00 +29°C° 0 mm 3 m/S 755 mmHg 28%
    12:00 +30°C° 0 mm 3 m/S 755 mmHg 27%
    13:00 +32°C° 0 mm 4 m/S 755 mmHg 25%
    14:00 +30°C° 0 mm 4 m/S 755 mmHg 27%
    15:00 +30°C° 0 mm 5 m/S 755 mmHg 28%
    16:00 +29°C° 0 mm 5 m/S 755 mmHg 29%
    17:00 +27°C° 0 mm 5 m/S 755 mmHg 34%
    18:00 +25°C° 0 mm 5 m/S 755 mmHg 39%
    19:00 +22°C° 0 mm 4 m/S 755 mmHg 44%
    20:00 +21°C° 0 mm 4 m/S 756 mmHg 48%
    21:00 +19°C° 0 mm 4 m/S 756 mmHg 53%
    22:00 +18°C° 0 mm 3 m/S 757 mmHg 57%
    23:00 +18°C° 0 mm 3 m/S 757 mmHg 59%

    Morgen, 26 Juni, Mittwoch

    Zeit Temperatur Niederschläge Wind Luftdruck Luftfeuchtigkeit
    00:00 +17°C° 0 mm 3 m/S 757 mmHg 62%
    01:00 +16°C° 0 mm 3 m/S 757 mmHg 64%
    02:00 +16°C° 0 mm 3 m/S 757 mmHg 66%
    03:00 +16°C° 0 mm 3 m/S 757 mmHg 68%
    04:00 +14°C° 0 mm 3 m/S 757 mmHg 70%
    05:00 +16°C° 0 mm 3 m/S 757 mmHg 66%
    06:00 +17°C° 0 mm 3 m/S 758 mmHg 62%
    07:00 +18°C° 0 mm 3 m/S 758 mmHg 59%
    08:00 +19°C° 0 mm 4 m/S 758 mmHg 55%
    09:00 +21°C° 0 mm 4 m/S 758 mmHg 51%
    10:00 +23°C° 0 mm 4 m/S 758 mmHg 47%
    11:00 +23°C° 0 mm 5 m/S 759 mmHg 46%
    12:00 +25°C° 0 mm 5 m/S 759 mmHg 44%
    13:00 +26°C° 0 mm 6 m/S 759 mmHg 43%
    14:00 +24°C° 0 mm 6 m/S 759 mmHg 41%
    15:00 +23°C° 0 mm 6 m/S 759 mmHg 40%
    16:00 +23°C° 0 mm 6 m/S 759 mmHg 39%
    17:00 +21°C° 0 mm 6 m/S 759 mmHg 44%
    18:00 +20°C° 0 mm 5 m/S 759 mmHg 48%
    19:00 +19°C° 0 mm 5 m/S 759 mmHg 53%
    20:00 +17°C° 0 mm 4 m/S 760 mmHg 61%
    21:00 +15°C° 0 mm 4 m/S 760 mmHg 68%
    22:00 +14°C° 0 mm 3 m/S 761 mmHg 76%
    23:00 +13°C° 0 mm 3 m/S 761 mmHg 77%

    übermorgen, 27 Juni, Donnerstag

    Zeit Temperatur Niederschläge Wind Luftdruck Luftfeuchtigkeit
    00:00 +13°C° 0 mm 3 m/S 760 mmHg 79%
    01:00 +13°C° 0 mm 3 m/S 760 mmHg 80%
    02:00 +13°C° 0 mm 3 m/S 760 mmHg 81%
    03:00 +12°C° 0 mm 3 m/S 760 mmHg 82%
    04:00 +12°C° 0 mm 3 m/S 760 mmHg 82%
    05:00 +13°C° 0 mm 3 m/S 761 mmHg 77%
    06:00 +14°C° 0 mm 3 m/S 761 mmHg 73%
    07:00 +16°C° 0 mm 3 m/S 761 mmHg 68%
    08:00 +18°C° 0 mm 3 m/S 761 mmHg 60%
    09:00 +19°C° 0 mm 3 m/S 761 mmHg 51%
    10:00 +21°C° 0 mm 3 m/S 761 mmHg 43%
    11:00 +22°C° 0 mm 4 m/S 761 mmHg 40%
    12:00 +23°C° 0 mm 4 m/S 761 mmHg 38%
    13:00 +25°C° 0 mm 5 m/S 761 mmHg 36%
    14:00 +25°C° 0 mm 5 m/S 761 mmHg 37%
    15:00 +23°C° 0 mm 5 m/S 760 mmHg 38%
    16:00 +23°C° 0 mm 6 m/S 760 mmHg 40%
    17:00 +21°C° 0 mm 5 m/S 760 mmHg 44%
    18:00 +20°C° 0 mm 5 m/S 760 mmHg 49%
    19:00 +19°C° 0 mm 4 m/S 760 mmHg 54%
    20:00 +18°C° 0 mm 4 m/S 760 mmHg 59%
    21:00 +16°C° 0 mm 3 m/S 760 mmHg 65%
    22:00 +14°C° 0 mm 3 m/S 761 mmHg 70%
    23:00 +14°C° 0 mm 3 m/S 760 mmHg 72%

    28 Juni, Freitag

    Zeit Temperatur Niederschläge Wind Luftdruck Luftfeuchtigkeit
    00:00 +13°C° 0 mm 3 m/S 760 mmHg 73%
    01:00 +14°C° 0 mm 2 m/S 760 mmHg 75%
    02:00 +14°C° 0 mm 2 m/S 760 mmHg 76%
    03:00 +13°C° 0 mm 2 m/S 760 mmHg 77%
    04:00 +13°C° 0 mm 2 m/S 760 mmHg 78%
    05:00 +14°C° 0 mm 2 m/S 760 mmHg 73%
    06:00 +15°C° 0 mm 2 m/S 760 mmHg 69%
    07:00 +16°C° 0 mm 2 m/S 760 mmHg 64%
    08:00 +18°C° 0 mm 2 m/S 761 mmHg 56%
    09:00 +20°C° 0 mm 2 m/S 761 mmHg 48%
    10:00 +22°C° 0 mm 3 m/S 761 mmHg 40%
    11:00 +24°C° 0 mm 3 m/S 761 mmHg 38%
    12:00 +25°C° 0 mm 4 m/S 761 mmHg 35%
    13:00 +26°C° 0 mm 4 m/S 760 mmHg 32%
    14:00 +26°C° 0 mm 5 m/S 760 mmHg 33%
    15:00 +25°C° 0 mm 5 m/S 760 mmHg 34%
    16:00 +25°C° 0 mm 5 m/S 760 mmHg 35%
    17:00 +22°C° 0 mm 5 m/S 760 mmHg 40%
    18:00 +21°C° 0 mm 4 m/S 760 mmHg 45%
    19:00 +19°C° 0 mm 4 m/S 760 mmHg 50%
    20:00 +18°C° 0 mm 4 m/S 761 mmHg 58%
    21:00 +16°C° 0 mm 3 m/S 761 mmHg 65%
    22:00 +14°C° 0 mm 3 m/S 762 mmHg 73%
    23:00 +14°C° 0 mm 2 m/S 761 mmHg 75%

    29 Juni, Samstag

    Zeit Temperatur Niederschläge Wind Luftdruck Luftfeuchtigkeit
    00:00 +14°C° 0 mm 2 m/S 761 mmHg 78%
    01:00 +14°C° 0 mm 2 m/S 761 mmHg 80%
    02:00 +13°C° 0 mm 2 m/S 761 mmHg 81%
    03:00 +13°C° 0 mm 2 m/S 761 mmHg 82%
    04:00 +13°C° 0 mm 1 m/S 761 mmHg 84%
    05:00 +14°C° 0 mm 1 m/S 761 mmHg 79%
    06:00 +15°C° 0 mm 1 m/S 761 mmHg 74%
    07:00 +16°C° 0 mm 1 m/S 761 mmHg 69%
    08:00 +19°C° 0 mm 1 m/S 761 mmHg 59%
    09:00 +22°C° 0 mm 1 m/S 761 mmHg 49%
    10:00 +24°C° 0 mm 1 m/S 761 mmHg 40%
    11:00 +26°C° 0 mm 1 m/S 761 mmHg 35%
    12:00 +28°C° 0 mm 2 m/S 761 mmHg 30%
    13:00 +30°C° 0 mm 2 m/S 760 mmHg 25%
    14:00 +30°C° 0 mm 3 m/S 760 mmHg 25%
    15:00 +30°C° 0 mm 3 m/S 760 mmHg 25%
    16:00 +30°C° 0 mm 4 m/S 759 mmHg 26%
    17:00 +28°C° 0 mm 3 m/S 759 mmHg 30%
    18:00 +26°C° 0 mm 3 m/S 759 mmHg 35%
    19:00 +24°C° 0 mm 3 m/S 759 mmHg 40%
    20:00 +22°C° 0 mm 3 m/S 760 mmHg 46%
    21:00 +20°C° 0 mm 2 m/S 760 mmHg 52%
    22:00 +18°C° 0 mm 2 m/S 761 mmHg 59%
    23:00 +17°C° 0 mm 2 m/S 760 mmHg 62%

    30 Juni, Sonntag

    Zeit Temperatur Niederschläge Wind Luftdruck Luftfeuchtigkeit
    00:00 +17°C° 0 mm 2 m/S 760 mmHg 65%
    01:00 +16°C° 0 mm 2 m/S 760 mmHg 69%
    02:00 +16°C° 0 mm 2 m/S 760 mmHg 70%
    03:00 +16°C° 0 mm 1 m/S 760 mmHg 72%
    04:00 +15°C° 0 mm 1 m/S 760 mmHg 73%
    05:00 +18°C° 0 mm 1 m/S 760 mmHg 67%
    06:00 +19°C° 0 mm 1 m/S 760 mmHg 60%
    07:00 +21°C° 0 mm 1 m/S 760 mmHg 54%
    08:00 +23°C° 0 mm 1 m/S 760 mmHg 47%
    09:00 +26°C° 0 mm 1 m/S 760 mmHg 39%
    10:00 +29°C° 0 mm 1 m/S 760 mmHg 32%
    11:00 +30°C° 0 mm 2 m/S 759 mmHg 29%
    12:00 +33°C° 0 mm 3 m/S 759 mmHg 26%
    13:00 +34°C° 0 mm 3 m/S 759 mmHg 23%
    14:00 +34°C° 0 mm 3 m/S 758 mmHg 23%
    15:00 +33°C° 0 mm 4 m/S 758 mmHg 23%
    16:00 +33°C° 0 mm 4 m/S 758 mmHg 24%
    17:00 +30°C° 0 mm 4 m/S 758 mmHg 27%
    18:00 +28°C° 0 mm 3 m/S 758 mmHg 31%
    19:00 +26°C° 0 mm 3 m/S 758 mmHg 35%
    20:00 +24°C° 0 mm 3 m/S 758 mmHg 41%
    21:00 +21°C° 0 mm 3 m/S 758 mmHg 48%
    22:00 +19°C° 0 mm 3 m/S 759 mmHg 54%
    23:00 +18°C° 0 mm 3 m/S 758 mmHg 58%
    Mehr zeigen